Tracking 27111 objects as of 28-Mar-2023
HD Live streaming from Space Station
objects crossing your sky now

COSMOS 1823 DEB

Track COSMOS 1823 DEB now!
10-day predictions


NORAD ID: 19006
Int'l Code: 1987-020BB
Perigee: 905.2 km
Apogee: 1,007.9 km
Inclination: 73.4 °
Period: 104.0 minutes
Semi major axis: 7327 km
RCS: 0.0433 m2 (small)
Launch date: February 20, 1987
Source: Commonwealth of Independent States (former USSR) (CIS)
Launch site: PLESETSK MISSILE AND SPACE COMPLEX (PKMTR)

Note: This is SATELLITE DEBRIS
Your satellite tracking list
Your tracking list is empty




NASA's NSSDC Master Catalog

Two Line Element Set (TLE):
1 19006U 87020BB  23086.95866708  .00031050  00000-0  27287-1 0  9997
2 19006  73.4425 287.7776 0070116  86.3411  40.2412 13.84085298681832
Source of the keplerian elements: AFSPC